• Em Portugal
  • Lista de países
  • Para 7 dias
  • Temperatura da água
  • Mapas de satélite
  • Mapa do tempo
  • Widgets de tempo
  • user-avatar
    Iniciar Sessão

    Previsão horária em Podgorna

    Hoje, 18 Julho, Quarta-feira

    Tempo Temperatura Precipitação Vento Pressão Humidade
    00:00 +17°C° 0,1 mm 4 m/s 724 mmHg 94%
    01:00 +17°C° 0 mm 4 m/s 724 mmHg 94%
    02:00 +17°C° 0,1 mm 4 m/s 723 mmHg 94%
    03:00 +16°C° 0,1 mm 5 m/s 723 mmHg 94%
    04:00 +16°C° 0,1 mm 5 m/s 723 mmHg 94%
    05:00 +16°C° 0,5 mm 6 m/s 724 mmHg 93%
    06:00 +16°C° 0,5 mm 6 m/s 724 mmHg 92%
    07:00 +16°C° 0 mm 5 m/s 724 mmHg 92%
    08:00 +17°C° 0,6 mm 6 m/s 725 mmHg 91%
    09:00 +17°C° 0,6 mm 6 m/s 725 mmHg 90%
    10:00 +17°C° 0,6 mm 6 m/s 725 mmHg 90%
    11:00 +17°C° 0,3 mm 6 m/s 725 mmHg 88%
    12:00 +19°C° 0,3 mm 6 m/s 726 mmHg 87%
    13:00 +17°C° 0 mm 5 m/s 726 mmHg 88%
    14:00 +19°C° 0,2 mm 6 m/s 726 mmHg 85%
    15:00 +20°C° 0,2 mm 6 m/s 726 mmHg 83%
    16:00 +20°C° 0,2 mm 6 m/s 727 mmHg 80%
    17:00 +20°C° 0,1 mm 5 m/s 727 mmHg 82%
    18:00 +19°C° 0,1 mm 4 m/s 727 mmHg 83%
    19:00 +19°C° 0,1 mm 3 m/s 727 mmHg 85%
    20:00 +18°C° 0,1 mm 3 m/s 727 mmHg 87%
    21:00 +18°C° 0,1 mm 3 m/s 727 mmHg 90%
    22:00 +17°C° 0,1 mm 2 m/s 727 mmHg 92%
    23:00 +17°C° 0 mm 3 m/s 727 mmHg 93%

    Amanhã, 19 Julho, Quinta-feira

    Tempo Temperatura Precipitação Vento Pressão Humidade
    00:00 +16°C° 0 mm 3 m/s 727 mmHg 94%
    01:00 +16°C° 0 mm 3 m/s 728 mmHg 95%
    02:00 +16°C° 0 mm 3 m/s 727 mmHg 95%
    03:00 +16°C° 0 mm 3 m/s 727 mmHg 95%
    04:00 +16°C° 0 mm 3 m/s 727 mmHg 96%
    05:00 +15°C° 0 mm 4 m/s 727 mmHg 93%
    06:00 +17°C° 0 mm 4 m/s 728 mmHg 90%
    07:00 +17°C° 0 mm 5 m/s 728 mmHg 87%
    08:00 +19°C° 0,1 mm 5 m/s 728 mmHg 84%
    09:00 +19°C° 0,1 mm 5 m/s 728 mmHg 81%
    10:00 +20°C° 0,1 mm 5 m/s 728 mmHg 78%
    11:00 +20°C° 0,2 mm 5 m/s 728 mmHg 79%
    12:00 +20°C° 0,2 mm 5 m/s 728 mmHg 79%
    13:00 +20°C° 0,2 mm 5 m/s 728 mmHg 80%
    14:00 +20°C° 0,1 mm 5 m/s 728 mmHg 80%
    15:00 +20°C° 0,1 mm 5 m/s 728 mmHg 80%
    16:00 +20°C° 0,1 mm 5 m/s 728 mmHg 80%
    17:00 +20°C° 0 mm 4 m/s 728 mmHg 81%
    18:00 +19°C° 0 mm 4 m/s 728 mmHg 82%
    19:00 +19°C° 0 mm 3 m/s 728 mmHg 83%
    20:00 +18°C° 0 mm 3 m/s 728 mmHg 86%
    21:00 +17°C° 0 mm 2 m/s 728 mmHg 89%
    22:00 +16°C° 0 mm 2 m/s 728 mmHg 92%
    23:00 +16°C° 0 mm 2 m/s 728 mmHg 91%

    Depois de amanhã, 20 Julho, Sexta-feira

    Tempo Temperatura Precipitação Vento Pressão Humidade
    00:00 +16°C° 0 mm 2 m/s 728 mmHg 91%
    01:00 +16°C° 0 mm 2 m/s 728 mmHg 91%
    02:00 +15°C° 0 mm 2 m/s 728 mmHg 92%
    03:00 +15°C° 0 mm 2 m/s 728 mmHg 92%
    04:00 +14°C° 0 mm 2 m/s 728 mmHg 93%
    05:00 +15°C° 0 mm 2 m/s 728 mmHg 86%
    06:00 +17°C° 0 mm 2 m/s 728 mmHg 79%
    07:00 +18°C° 0 mm 3 m/s 729 mmHg 73%
    08:00 +19°C° 0 mm 3 m/s 729 mmHg 66%
    09:00 +21°C° 0 mm 3 m/s 729 mmHg 58%
    10:00 +22°C° 0 mm 3 m/s 729 mmHg 51%
    11:00 +24°C° 0 mm 3 m/s 729 mmHg 48%
    12:00 +25°C° 0 mm 3 m/s 728 mmHg 46%
    13:00 +26°C° 0 mm 3 m/s 728 mmHg 43%
    14:00 +26°C° 0 mm 3 m/s 728 mmHg 42%
    15:00 +26°C° 0 mm 2 m/s 728 mmHg 42%
    16:00 +26°C° 0 mm 2 m/s 727 mmHg 41%
    17:00 +25°C° 0 mm 2 m/s 727 mmHg 47%
    18:00 +23°C° 0 mm 2 m/s 727 mmHg 54%
    19:00 +22°C° 0 mm 1 m/s 727 mmHg 60%
    20:00 +20°C° 0 mm 1 m/s 727 mmHg 62%
    21:00 +19°C° 0 mm 1 m/s 727 mmHg 65%
    22:00 +16°C° 0 mm 1 m/s 727 mmHg 67%
    23:00 +16°C° 0 mm 1 m/s 727 mmHg 68%

    21 Julho, Sábado

    Tempo Temperatura Precipitação Vento Pressão Humidade
    00:00 +16°C° 0 mm 1 m/s 727 mmHg 69%
    01:00 +15°C° 0 mm 1 m/s 726 mmHg 69%
    02:00 +15°C° 0 mm 1 m/s 726 mmHg 70%
    03:00 +15°C° 0 mm 1 m/s 726 mmHg 70%
    04:00 +15°C° 0 mm 1 m/s 726 mmHg 71%
    05:00 +16°C° 0 mm 1 m/s 726 mmHg 68%
    06:00 +19°C° 0 mm 1 m/s 726 mmHg 65%
    07:00 +21°C° 0 mm 1 m/s 726 mmHg 62%
    08:00 +23°C° 0 mm 1 m/s 727 mmHg 57%
    09:00 +24°C° 0 mm 1 m/s 727 mmHg 52%
    10:00 +26°C° 0 mm 1 m/s 727 mmHg 48%
    11:00 +26°C° 0 mm 1 m/s 727 mmHg 46%
    12:00 +27°C° 0 mm 1 m/s 726 mmHg 45%
    13:00 +27°C° 0 mm 1 m/s 726 mmHg 43%
    14:00 +27°C° 0 mm 1 m/s 726 mmHg 44%
    15:00 +27°C° 0 mm 1 m/s 726 mmHg 44%
    16:00 +27°C° 0 mm 1 m/s 726 mmHg 45%
    17:00 +26°C° 0 mm 1 m/s 726 mmHg 51%
    18:00 +25°C° 0 mm 1 m/s 725 mmHg 57%
    19:00 +23°C° 0 mm 1 m/s 725 mmHg 62%
    20:00 +22°C° 0,1 mm 1 m/s 725 mmHg 65%
    21:00 +21°C° 0,1 mm 1 m/s 725 mmHg 67%
    22:00 +20°C° 0,1 mm 1 m/s 725 mmHg 70%
    23:00 +19°C° 0 mm 1 m/s 725 mmHg 72%

    22 Julho, Domingo

    Tempo Temperatura Precipitação Vento Pressão Humidade
    00:00 +19°C° 0 mm 1 m/s 725 mmHg 74%
    01:00 +18°C° 0 mm 1 m/s 725 mmHg 76%
    02:00 +18°C° 0 mm 1 m/s 725 mmHg 77%
    03:00 +18°C° 0 mm 1 m/s 725 mmHg 78%
    04:00 +16°C° 0 mm 0 m/s 725 mmHg 79%
    05:00 +17°C° 0 mm 0 m/s 725 mmHg 77%
    06:00 +18°C° 0 mm 0 m/s 725 mmHg 74%
    07:00 +21°C° 0 mm 1 m/s 725 mmHg 71%
    08:00 +22°C° 0,1 mm 1 m/s 725 mmHg 68%
    09:00 +23°C° 0,1 mm 1 m/s 726 mmHg 65%
    10:00 +24°C° 0,1 mm 1 m/s 726 mmHg 61%
    11:00 +25°C° 0,4 mm 1 m/s 725 mmHg 59%
    12:00 +25°C° 0,4 mm 2 m/s 725 mmHg 57%
    13:00 +26°C° 0,4 mm 2 m/s 725 mmHg 55%
    14:00 +26°C° 0,5 mm 3 m/s 725 mmHg 55%
    15:00 +26°C° 0,5 mm 3 m/s 725 mmHg 55%
    16:00 +26°C° 0,5 mm 3 m/s 725 mmHg 56%
    17:00 +25°C° 0,1 mm 3 m/s 725 mmHg 60%
    18:00 +23°C° 0,1 mm 2 m/s 725 mmHg 65%
    19:00 +21°C° 0,1 mm 2 m/s 725 mmHg 69%
    20:00 +20°C° 0 mm 2 m/s 726 mmHg 71%
    21:00 +20°C° 0 mm 1 m/s 726 mmHg 72%
    22:00 +19°C° 0 mm 1 m/s 726 mmHg 74%
    23:00 +18°C° 0 mm 1 m/s 726 mmHg 75%

    23 Julho, Segunda-feira

    Tempo Temperatura Precipitação Vento Pressão Humidade
    00:00 +18°C° 0 mm 1 m/s 727 mmHg 76%
    01:00 +16°C° 0 mm 1 m/s 727 mmHg 76%
    02:00 +16°C° 0 mm 1 m/s 727 mmHg 77%
    03:00 +15°C° 0 mm 1 m/s 727 mmHg 78%
    04:00 +15°C° 0 mm 1 m/s 727 mmHg 79%
    05:00 +18°C° 0 mm 1 m/s 727 mmHg 75%
    06:00 +18°C° 0 mm 2 m/s 728 mmHg 72%
    07:00 +20°C° 0 mm 2 m/s 728 mmHg 68%
    08:00 +21°C° 0,1 mm 2 m/s 728 mmHg 65%
    09:00 +23°C° 0,1 mm 2 m/s 729 mmHg 61%
    10:00 +25°C° 0,1 mm 3 m/s 729 mmHg 58%
    11:00 +25°C° 0,2 mm 3 m/s 729 mmHg 57%
    12:00 +25°C° 0,2 mm 3 m/s 729 mmHg 57%
    13:00 +26°C° 0,2 mm 3 m/s 728 mmHg 56%
    14:00 +26°C° 0,1 mm 3 m/s 728 mmHg 55%
    15:00 +26°C° 0,1 mm 3 m/s 728 mmHg 54%
    16:00 +26°C° 0,1 mm 3 m/s 728 mmHg 52%
    17:00 +25°C° 0 mm 3 m/s 728 mmHg 57%
    18:00 +24°C° 0 mm 2 m/s 728 mmHg 62%
    19:00 +23°C° 0 mm 1 m/s 728 mmHg 67%
    20:00 +21°C° 0 mm 1 m/s 729 mmHg 70%
    21:00 +20°C° 0 mm 1 m/s 729 mmHg 73%
    22:00 +19°C° 0 mm 1 m/s 729 mmHg 76%
    23:00 +18°C° 0 mm 1 m/s 729 mmHg 78%
    Mostrar mais